Homer, AK

8:05 PM AKDT on September 19, 2019 (GMT -0800)
Homer

Weather History for PAHO - July, 2019

Change the Weather History Date:

Saturday, July 20, 2019

  Actual Average Record
Temperature  
Mean Temperature 62 °F -  
Max Temperature 66 °F 61 °F 73 °F (1936)
Min Temperature 55 °F 48 °F 38 °F (1953)
Degree Days  
Heating Degree Days 4    
Growing Degree Days 12 (Base 50)    
Moisture  
Dew Point 54 °F    
Average Humidity 74    
Maximum Humidity 90    
Minimum Humidity 68    
Precipitation  
Precipitation 0.00 in - - ()
Sea Level Pressure  
Sea Level Pressure 30.11 in    
Wind  
Wind Speed 3 mph (West)    
Max Wind Speed 12 mph    
Max Gust Speed -    
Visibility 10 miles    
Events      
Averages and records for this station are not official NWS values.
T = Trace of Precipitation, MM = Missing Value Source: NWS Daily Summary

Daily Weather History Graph

Daily Weather History Graph

Search for Another Location

Airport or City:

Astronomy

Jul. 20, 2019 Rise Set
Actual Time 5:22 AM AKDT 11:00 PM AKDT
Civil Twilight 4:12 AM AKDT 12:09 AM AKDT
Nautical Twilight 2:44 AM AKDT 1:39 AM AKDT
Astronomical Twilight Sun does not set Sun does not set
Moon 12:24 AM AKDT 9:42 AM AKDT
Length of Visible Light 19h 56m
Length of Day
17h 37m
Waning Gibbous, 86% of the Moon is Illuminated
Jul 20
Waning Gibbous
Jul 24
Last Quarter
Jul 31
New
Aug 7
First Quarter
Aug 15
Full

Hourly Weather History & Observations

Time (AKDT) Temp. Dew Point Humidity Pressure Visibility Wind Dir Wind Speed Gust Speed Precip Events Conditions
12:53 AM 61.0 °F 54.0 °F 78% 30.06 in 10.0 mi NE 3.5 mph - N/A   Clear
1:53 AM 62.1 °F 52.0 °F 70% 30.07 in 10.0 mi Calm Calm - N/A   Unknown
2:53 AM 61.0 °F 52.0 °F 72% 30.07 in 10.0 mi Calm Calm - N/A   Overcast
3:53 AM 60.1 °F 53.1 °F 78% 30.07 in 10.0 mi Calm Calm - N/A   Overcast
4:53 AM 59.0 °F 53.1 °F 81% 30.07 in 10.0 mi Calm Calm - N/A   Overcast
5:53 AM 57.9 °F 52.0 °F 81% 30.08 in 10.0 mi NE 4.6 mph - N/A   Overcast
6:53 AM 60.1 °F 53.1 °F 78% 30.09 in 10.0 mi NE 3.5 mph - N/A   Overcast
7:53 AM 62.1 °F 52.0 °F 70% 30.10 in 10.0 mi Calm Calm - N/A   Overcast
8:53 AM 61.0 °F 54.0 °F 78% 30.11 in 10.0 mi Calm Calm - N/A   Mostly Cloudy
9:53 AM 62.1 °F 54.0 °F 75% 30.12 in 10.0 mi Calm Calm - N/A   Overcast
10:53 AM 63.0 °F 54.0 °F 72% 30.12 in 10.0 mi Calm Calm - N/A   Overcast
11:53 AM 63.0 °F 54.0 °F 72% 30.12 in 10.0 mi SW 4.6 mph - N/A   Overcast
12:53 PM 63.0 °F 55.0 °F 75% 30.12 in 10.0 mi WSW 4.6 mph - N/A   Overcast
1:53 PM 66.0 °F 55.0 °F 68% 30.13 in 10.0 mi West 8.1 mph - N/A   Overcast
2:53 PM 63.0 °F 55.0 °F 75% 30.13 in 10.0 mi West 11.5 mph - N/A   Overcast
3:53 PM 64.0 °F 54.0 °F 70% 30.14 in 10.0 mi WSW 9.2 mph - N/A   Overcast
4:53 PM 63.0 °F 54.0 °F 72% 30.13 in 10.0 mi West 9.2 mph - N/A   Overcast
5:53 PM 64.0 °F 54.0 °F 70% 30.13 in 10.0 mi WSW 9.2 mph - N/A   Overcast
6:53 PM 64.0 °F 54.0 °F 70% 30.12 in 10.0 mi West 9.2 mph - N/A   Overcast
7:53 PM 64.0 °F 54.0 °F 70% 30.12 in 10.0 mi West 9.2 mph - N/A   Scattered Clouds
8:53 PM 64.0 °F 54.0 °F 70% 30.12 in 10.0 mi WSW 8.1 mph - N/A   Clear
9:53 PM 63.0 °F 53.1 °F 70% 30.12 in 10.0 mi West 5.8 mph - N/A   Clear
10:53 PM 59.0 °F 53.1 °F 81% 30.12 in 10.0 mi Calm Calm - N/A   Clear
11:53 PM 55.9 °F 53.1 °F 90% 30.13 in 10.0 mi Calm Calm - N/A   Clear